World > North America > United States > South Dakota > Ardmore  

Ardmore, SD Hourly Weather Updates

Feedback E-mail the Weather

Quick Clicks

Ardmore, SD Weather Maps

°F °C°F °C
Ardmore Weather Map
UTC Time: 4/23/2024, 01:40
Your Time:

Ardmore, SD Regional Weather

Expires:202404230200;;213043
ASUS43 KFSD 230110
RWRSD 

WEATHER ROUNDUP FOR SOUTH DAKOTA
NATIONAL WEATHER SERVICE SIOUX FALLS SD
800 PM CDT MON APR 22 2024

NOTE: "FAIR" INDICATES FEW OR NO CLOUDS BELOW 12,000 FEET WITH NO
SIGNIFICANT WEATHER AND/OR OBSTRUCTIONS TO VISIBILITY.



SDZ012>016-024>037-041>051-057-063-072>074-230200-
SOUTHWEST AND SOUTH CENTRAL SOUTH DAKOTA
  
CITY           SKY/WX    TMP DP  RH WIND       PRES   REMARKS
RAPID CTY ARPT CLEAR     59  22  24 N16G29    29.80S TC  15           
PIERRE         CLEAR     60  24  25 NW13      29.73S TC  16           
CUSTER         CLEAR     51  16  24 NW5       29.84F TC  11           
ELLSWORTH AFB  CLEAR     59  17  19 N20       29.77S TC  15           
PHILIP         CLEAR     62  19  19 NW17      29.78R TC  17           
PINE RIDGE     CLEAR     62  23  22 W6        29.79S TC  17           
SPEARFISH      CLEAR     55  16  21 NW15G25   29.84S TC  13           
WINNER         CLEAR     61  28  28 MISG      29.78S TC  16           
$$
 

SKY/WX - Weather  TMP - Temperature  DP - Dew Point  RH - Humidity
WIND - Wind Direction/Speed PRES - Barometric Pressure VSB - Visibility
WCI - Wind Chill Index E13G22 Wind - East Wind 13 mph/Gusts of 22 mph

Trending Headlines

Trending Entertainment Headlines

Ardmore Radar Loop

Use the map search tool if you want to place a location marker on the radar map...

Ardmore Quick Facts

National Two Day Weather Forecast


E-mail the Ardmore Weather Forecast

Voice your opinion or tell us about page issues...